LiveATC.Net - Listen to live air traffic control over the Internet!


ICAO: ENBO  IATA: BOO   Airport: Bodo Airport
City: Bodo
Country: Norway   Continent: Europe
ENBO METAR Weather: ENBO 260720Z 23010KT 9999 -SHRA FEW005 SCT010 BKN018 04/03 Q1006 NOSIG
ENBO Flight Activity (FlightAware)

ENBO Approach
Feed Status: DOWN
Last heard on: 2020-11-13 22:27:21 (12 days 9 hours 24 minutes ago)
Archive Access: ENBO Approach
FacilityFrequency
Bodo Approach119.700

ENBO Tower
Feed Status: DOWN
Last heard on: 2020-11-13 22:27:21 (12 days 9 hours 24 minutes ago)
Archive Access: ENBO Tower
FacilityFrequency
Bodo Tower118.100

NOTICE

Unauthorized use prohibited. See LiveATC.net Terms of Service


Airport/ARTCC Code
Frequency Search
(e.g., 124.400, 128.75)
Site-wide search
 


Browse Feeds
Top 50 Feeds
Coverage Map
Bad Weather Areas

LiveATC FAQ
Offer LiveATC feed
Contact LiveATC.net
Press Inquiries

LiveATC on iPhone
LiveATC on Android

Windows Phone
Windows 8/10

LiveATC Mobile
(Mobile browser)

ATC Audio Archives
Interesting Recordings

LiveATC Forums


Home Page
About LiveATC.net
Make a Donation
Terms of Use
Privacy Policy

Canadian Air Freqs

AIRMETs/SIGMETs

FAA Airport Status
Nat'l Airspace Status
Arrival Demand Charts


Server Software By:
Icecast.org
Liquidsoap